Weather History for St. Johns, AZ

Change the Weather History Date:

Saturday, November 17, 2012

  Actual Average (KSOW) Record (KSOW)
Temperature  
Mean Temperature 40 °F -  
Max Temperature 54 °F 53 °F 74 °F (1967)
Min Temperature 26 °F 32 °F 9 °F (1980)
Degree Days  
Heating Degree Days 25    
Moisture  
Dew Point 26 °F    
Average Humidity 53    
Maximum Humidity 73    
Minimum Humidity 32    
Precipitation  
Precipitation 0.00 in - - ()
Sea Level Pressure  
Sea Level Pressure 30.11 in    
Wind  
Wind Speed 2 mph (WSW)    
Max Wind Speed 18 mph    
Max Gust Speed -    
Visibility 10 miles    
Events      
Averages and records for this station are not official NWS values.
T = Trace of Precipitation, MM = Missing Value Source: NWS Daily Summary

Daily Weather History Graph

Daily Weather History Graph

Search for Another Location

Airport:

Trip Planner

Search our weather history database for the weather conditions in past years. The results will help you decide how hot, cold, wet, or windy it might be!

Date:

Astronomy

Nov. 17, 2012 Rise Set
Actual Time 6:53 AM MST 5:11 PM MST
Civil Twilight 6:26 AM MST 5:38 PM MST
Nautical Twilight 5:56 AM MST 6:08 PM MST
Astronomical Twilight 5:26 AM MST 6:38 PM MST
Moon 10:40 AM MST (11/17) 9:24 PM MST (11/17)
Length of Visible Light 11h 11m
Length of Day
10h 17m
Waxing Crescent, 21% of the Moon is Illuminated
Nov 17
Waxing Crescent
Nov 20
First Quarter
Nov 28
Full
Dec 6
Last Quarter
Dec 13
New

Hourly Weather History & Observations

Time (MST) Temp. Windchill Dew Point Humidity Pressure Visibility Wind Dir Wind Speed Gust Speed Precip Events Conditions
12:54 AM 34.0 °F 31.0 °F 19.9 °F 56% 30.10 in 8.0 mi SW 3.5 mph - N/A   Clear
1:54 AM 32.0 °F - 19.0 °F 59% 30.10 in 10.0 mi Calm Calm - N/A   Clear
2:54 AM 30.9 °F - 19.0 °F 61% 30.10 in 10.0 mi Calm Calm - N/A   Clear
3:54 AM 32.0 °F 28.7 °F 19.9 °F 61% 30.10 in 10.0 mi SSE 3.5 mph - N/A   Clear
4:54 AM 30.0 °F - 19.0 °F 64% 30.13 in 10.0 mi Calm Calm - N/A   Clear
5:54 AM 27.0 °F - 18.0 °F 69% 30.16 in 10.0 mi Calm Calm - N/A   Clear
6:54 AM 27.0 °F - 19.0 °F 72% 30.18 in 10.0 mi Calm Calm - N/A   Clear
7:54 AM 30.9 °F - 19.9 °F 64% 30.19 in 10.0 mi Calm Calm - N/A   Clear
8:54 AM 36.0 °F - 23.0 °F 59% 30.19 in 10.0 mi Calm Calm - N/A   Clear
9:54 AM 43.0 °F - 25.0 °F 49% 30.17 in 10.0 mi Calm Calm - N/A   Clear
10:54 AM 48.9 °F - 26.1 °F 41% 30.16 in 10.0 mi Calm Calm - N/A   Clear
11:54 AM 53.1 °F - 26.1 °F 35% 30.12 in 10.0 mi NNE 3.5 mph - N/A   Clear
12:54 PM 55.9 °F - 26.1 °F 32% 30.11 in 10.0 mi Calm Calm - N/A   Scattered Clouds
1:54 PM 57.9 °F - 28.0 °F 32% 30.09 in 10.0 mi North 3.5 mph - N/A   Partly Cloudy
2:54 PM 57.9 °F - 28.9 °F 33% 30.07 in 10.0 mi Calm Calm - N/A   Partly Cloudy
3:54 PM 57.9 °F - 28.9 °F 33% 30.06 in 10.0 mi NE 3.5 mph - N/A   Clear
4:54 PM 57.0 °F - 34.0 °F 42% 30.06 in 10.0 mi WSW 8.1 mph - N/A   Clear
5:54 PM 51.1 °F - 33.1 °F 50% 30.10 in 10.0 mi WSW 5.8 mph - N/A   Clear
6:54 PM 50.0 °F - 33.1 °F 52% 30.12 in 10.0 mi SW 3.5 mph - N/A   Clear
7:54 PM 46.9 °F - 33.1 °F 59% 30.12 in 10.0 mi Calm Calm - N/A   Partly Cloudy
8:54 PM 45.0 °F - 32.0 °F 60% 30.11 in 10.0 mi Calm Calm - N/A   Clear
9:54 PM 43.0 °F - 30.9 °F 62% 30.10 in 10.0 mi Calm Calm - N/A   Mostly Cloudy
10:54 PM 37.9 °F - 30.0 °F 73% 30.08 in 7.0 mi Calm Calm - N/A   Scattered Clouds
11:54 PM 41.0 °F - 30.9 °F 67% 30.06 in 10.0 mi Calm Calm - N/A   Partly Cloudy